Location: Caltech
(34.1382°N, 118.1253°W)
Time: 03:00:42
(UTC-07:00)

Cosmos 1980 Rocket - Visible Passes

Search period start: 23 July 2014 00:00
Search period end: 02 August 2014 00:00
Orbit: 829 x 851 km, 71.0° (Epoch: 23 July)

Date Brightness Start Highest point End Pass type
(mag) Time Alt. Az. Time Alt. Az. Time Alt. Az.
23 Jul 2.3 21:18:00 10° NNW 21:23:41 82° WSW 21:27:59 18° SSE visible
24 Jul 2.2 21:02:24 10° NNW 21:08:07 87° WSW 21:13:14 13° SSE visible
25 Jul 2.2 20:46:49 10° NNW 20:52:32 88° ENE 20:58:13 10° SSE visible
26 Jul 2.2 20:31:15 10° NNW 20:36:57 82° ENE 20:42:38 10° SSE visible
27 Jul 4.9 22:03:06 10° W 22:04:35 11° W 22:06:04 10° WSW visible
28 Jul 4.8 21:46:58 10° WNW 21:49:03 12° W 21:51:08 10° WSW visible
29 Jul 4.8 21:30:59 10° WNW 21:33:31 13° W 21:36:03 10° SW visible
30 Jul 4.8 21:15:05 10° WNW 21:17:59 14° W 21:20:52 10° SW visible
31 Jul 4.8 20:59:14 10° WNW 21:02:26 16° W 21:05:38 10° SW visible
01 Aug 4.8 20:43:26 10° WNW 20:46:54 17° W 20:50:22 10° SW visible
